CW9461 Weather Reports


Display with metric or nautical units.
time (UTC)temp
F
wind
direction
speed
MPH
gust
MPH
rain 1hr
in
rain 24hr
in
rain mn
in
humidity
%
barometer
mb
20260506062103 55 112 0.0 2.0 0.00 0.12 0.11 86 1008.9
20260506061605 55 148 1.0 3.0 0.00 0.12 0.11 86 1008.8
20260506060106 55 112 0.0 0.0 0.00 0.12 0.11 85 1008.8
20260506051106 56 90 0.0 1.0 0.00 0.15 0.11 85 1008.5
20260506050605 56 191 1.0 3.0 0.00 0.16 0.11 85 1008.5
20260506050105 56 157 0.0 3.0 0.00 0.16 0.11 85 1008.4
20260506045105 56 112 0.0 2.0 0.00 0.16 0.11 84 1008.5
20260506044605 56 135 0.0 2.0 0.00 0.17 0.11 84 1008.1
20260506043605 57 180 1.0 3.0 0.00 0.18 0.11 83 1008.1
20260506043106 57 112 0.0 2.0 0.00 0.18 0.11 83 1008.1
20260506042606 57 154 0.0 1.0 0.00 0.19 0.11 83 1007.9
20260506042105 57 94 1.0 2.0 0.00 0.19 0.11 82 1007.8
20260506041605 57 129 1.0 2.0 0.00 0.19 0.11 82 1007.8
20260506041106 58 202 1.0 2.0 0.00 0.20 0.11 82 1007.8
20260506040605 58 115 1.0 2.0 0.00 0.20 0.11 81 1007.8
20260506035105 58 202 1.0 3.0 0.00 0.20 0.11 80 1007.8
20260506034606 58 157 0.0 2.0 0.00 0.20 0.11 80 1007.5
20260506034105 58 138 1.0 3.0 0.00 0.20 0.11 80 1007.5
20260506033106 58 202 0.0 1.0 0.00 0.20 0.11 79 1007.5
20260506032105 59 247 0.0 3.0 0.00 0.20 0.11 78 1007.1
20260506031605 59 247 1.0 2.0 0.00 0.20 0.11 77 1007.1
20260506030605 59 247 0.0 2.0 0.00 0.20 0.11 77 1006.8
20260506030105 59 202 1.0 2.0 0.00 0.20 0.11 76 1006.8
20260506025605 60 247 1.0 2.0 0.00 0.20 0.11 76 1006.8
20260506025105 60 202 0.0 2.0 0.00 0.20 0.11 75 1006.8
20260506024606 60 231 1.0 2.0 0.00 0.20 0.11 75 1006.8
20260506024105 60 162 0.0 2.0 0.00 0.20 0.11 75 1006.8
20260506023105 60 225 1.0 3.0 0.00 0.20 0.11 74 1006.7
20260506022606 61 118 0.0 1.0 0.00 0.20 0.11 74 1006.5
20260506022106 61 193 0.0 3.0 0.00 0.20 0.11 73 1006.4
20260506021605 61 208 2.0 5.0 0.00 0.20 0.11 73 1006.4
20260506021105 62 228 2.0 3.0 0.00 0.20 0.11 73 1006.4
20260506020606 62 212 0.0 3.0 0.00 0.20 0.11 72 1006.3
20260506020105 62 157 0.0 0.0 0.00 0.20 0.11 72 1006.4
20260506015607 63 205 0.0 2.0 0.00 0.20 0.11 71 1006.4
20260506015107 63 157 1.0 2.0 0.00 0.20 0.11 71 1006.4
20260506014607 63 225 0.0 2.0 0.00 0.20 0.11 70 1006.1
20260506014106 63 158 0.0 3.0 0.00 0.20 0.11 70 1006.1
20260506013605 64 157 1.0 2.0 0.00 0.20 0.11 70 1006.1
20260506012605 64 194 1.0 3.0 0.00 0.20 0.11 71 1006.1
20260506011605 63 180 1.0 7.0 0.00 0.20 0.11 70 1006.1
20260506011105 63 153 2.0 6.0 0.00 0.20 0.11 69 1006.0
20260506010605 64 121 3.0 5.0 0.00 0.20 0.11 69 1006.1
20260506010105 64 130 2.0 6.0 0.00 0.20 0.11 70 1005.9
20260506005605 64 153 3.0 9.0 0.00 0.20 0.11 69 1005.9
20260506005105 64 112 2.0 6.0 0.00 0.20 0.11 69 1005.8
20260506004606 64 118 3.0 6.0 0.00 0.20 0.11 69 1005.8
20260506004105 64 138 2.0 5.0 0.00 0.20 0.11 70 1005.8
20260506003605 64 138 2.0 5.0 0.00 0.20 0.11 71 1005.8
20260506003106 64 156 2.0 5.0 0.00 0.20 0.11 71 1005.8
20260506002605 64 202 1.0 3.0 0.00 0.20 0.11 71 1005.8
20260506002104 64 152 1.0 3.0 0.00 0.20 0.11 72 1005.8
20260506001604 64 217 1.0 5.0 0.00 0.20 0.11 71 1005.8
20260506001105 64 135 2.0 6.0 0.00 0.20 0.11 71 1005.8
20260506000105 64 190 2.0 6.0 0.00 0.20 0.11 71 1005.6
20260505235605 64 174 1.0 5.0 0.00 0.20 0.11 71 1005.8
20260505235106 64 199 2.0 5.0 0.00 0.20 0.11 71 1005.8
20260505234605 63 159 3.0 5.0 0.00 0.20 0.11 71 1005.8
20260505234104 63 223 1.0 5.0 0.00 0.20 0.11 71 1005.8
20260505233605 63 116 1.0 5.0 0.00 0.20 0.11 71 1005.8
20260505233105 63 176 2.0 3.0 0.00 0.20 0.11 71 1005.8
20260505232105 64 190 2.0 3.0 0.00 0.20 0.11 71 1005.8
20260505231106 64 246 0.0 3.0 0.00 0.20 0.11 71 1006.0
20260505230605 64 171 1.0 2.0 0.00 0.20 0.11 72 1005.9
20260505230106 63 170 0.0 2.0 0.00 0.20 0.11 72 1006.1
20260505225606 63 157 0.0 1.0 0.00 0.20 0.11 71 1005.9
20260505225105 63 157 1.0 2.0 0.00 0.20 0.11 71 1005.8
20260505224605 63 120 1.0 3.0 0.00 0.20 0.11 72 1006.1
20260505223605 63 247 1.0 3.0 0.00 0.20 0.11 72 1006.1
20260505222605 63 196 1.0 3.0 0.00 0.20 0.11 71 1006.1
20260505222105 63 147 2.0 3.0 0.00 0.20 0.11 70 1006.1
20260505221605 64 163 2.0 5.0 0.00 0.20 0.11 70 1006.1
20260505221105 64 187 2.0 5.0 0.00 0.20 0.11 70 1006.1
20260505220605 64 112 2.0 3.0 0.00 0.20 0.11 70 1006.1
20260505220105 64 143 1.0 3.0 0.00 0.20 0.11 70 1006.1
20260505215605 64 228 1.0 3.0 0.00 0.20 0.11 70 1006.1
20260505215105 63 157 2.0 3.0 0.00 0.20 0.11 70 1006.1
20260505214604 63 202 0.0 5.0 0.00 0.20 0.11 70 1006.1
20260505213604 63 160 2.0 5.0 0.00 0.20 0.11 69 1006.1
20260505213105 63 225 1.0 6.0 0.00 0.20 0.11 69 1006.1
20260505212605 63 242 2.0 3.0 0.00 0.20 0.11 69 1006.1
20260505212106 63 228 2.0 6.0 0.00 0.20 0.11 69 1006.1
20260505211605 63 281 2.0 5.0 0.00 0.20 0.11 69 1006.1
20260505211105 64 300 2.0 5.0 0.00 0.20 0.11 69 1006.1
20260505210604 64 292 2.0 5.0 0.00 0.20 0.11 69 1006.1
20260505210106 64 242 2.0 5.0 0.00 0.20 0.11 69 1006.1
20260505205606 64 283 2.0 5.0 0.00 0.20 0.11 69 1006.1
20260505205105 64 257 1.0 3.0 0.00 0.20 0.11 69 1006.1
20260505204604 63 224 2.0 5.0 0.00 0.20 0.11 69 1006.2
20260505204105 63 164 1.0 7.0 0.00 0.20 0.11 70 1006.1
20260505203605 63 239 3.0 6.0 0.00 0.20 0.11 70 1006.3
20260505203105 63 337 1.0 6.0 0.00 0.20 0.11 71 1006.4
20260505202104 63 268 3.0 6.0 0.00 0.20 0.11 71 1006.4
20260505201604 62 292 2.0 5.0 0.00 0.20 0.11 72 1006.2
20260505201105 62 252 4.0 7.0 0.00 0.20 0.11 72 1006.4
20260505200606 62 253 2.0 6.0 0.00 0.20 0.11 73 1006.4
20260505200105 62 279 3.0 6.0 0.00 0.20 0.11 73 1006.4
20260505195605 62 276 2.0 6.0 0.00 0.20 0.11 74 1006.4
20260505195105 62 264 3.0 8.0 0.00 0.20 0.11 74 1006.8
20260505194606 61 259 3.0 7.0 0.00 0.20 0.11 74 1006.4
20260505194106 61 253 3.0 10.0 0.00 0.20 0.11 75 1006.7
20260505193604 61 235 3.0 8.0 0.00 0.20 0.11 75 1006.4
20260505193105 61 243 4.0 9.0 0.00 0.20 0.11 75 1006.8
20260505192105 61 268 3.0 5.0 0.00 0.20 0.11 75 1006.8
20260505191605 61 241 2.0 6.0 0.00 0.20 0.11 76 1006.7
20260505191104 61 288 3.0 7.0 0.00 0.20 0.11 77 1006.6
20260505190604 60 267 2.0 7.0 0.00 0.20 0.11 78 1006.8
20260505190105 60 240 3.0 6.0 0.00 0.20 0.11 78 1006.4
20260505185605 60 288 2.0 7.0 0.00 0.20 0.11 77 1006.4
20260505184606 60 240 2.0 6.0 0.00 0.20 0.11 79 1006.6
20260505184105 59 278 3.0 8.0 0.00 0.20 0.11 80 1006.8
20260505183604 59 279 2.0 6.0 0.00 0.20 0.11 81 1006.4
20260505183105 59 259 2.0 7.0 0.00 0.20 0.11 81 1006.6
20260505182605 59 283 3.0 6.0 0.00 0.20 0.11 82 1006.8
20260505181605 58 249 3.0 7.0 0.00 0.20 0.11 83 1006.6
20260505180605 58 247 3.0 7.0 0.00 0.20 0.11 85 1006.8
20260505180105 58 255 4.0 8.0 0.00 0.20 0.11 85 1006.4
20260505175605 58 274 5.0 9.0 0.00 0.20 0.11 86 1006.6
20260505175104 57 263 3.0 6.0 0.00 0.20 0.11 86 1006.4
20260505174604 57 275 4.0 9.0 0.00 0.20 0.11 87 1006.4
20260505174105 57 283 3.0 8.0 0.00 0.20 0.11 88 1006.4
20260505173605 57 274 2.0 9.0 0.00 0.20 0.11 88 1006.4
20260505173106 57 231 2.0 5.0 0.00 0.20 0.11 89 1006.1
20260505172605 56 256 3.0 7.0 0.00 0.20 0.11 90 1006.1
20260505172104 56 255 2.0 6.0 0.00 0.20 0.11 91 1006.1
20260505171604 56 245 2.0 8.0 0.00 0.20 0.11 92 1006.1
20260505171106 55 234 1.0 6.0 0.00 0.20 0.11 93 1006.1
20260505170606 55 239 1.0 6.0 0.00 0.20 0.11 93 1006.2
20260505170104 56 219 1.0 5.0 0.00 0.20 0.11 94 1006.1
20260505165604 55 168 0.0 0.0 0.00 0.20 0.11 94 1006.3
20260505165104 55 180 0.0 0.0 0.00 0.20 0.11 94 1006.4
20260505164605 55 247 0.0 2.0 0.00 0.20 0.11 94 1006.4
20260505164105 55 292 0.0 1.0 0.00 0.20 0.11 95 1006.3
20260505163604 55 241 0.0 1.0 0.00 0.20 0.11 95 1006.2
20260505163105 55 288 0.0 1.0 0.00 0.20 0.11 95 1006.1
20260505162605 55 180 0.0 1.0 0.00 0.20 0.11 95 1006.1
20260505162105 55 221 1.0 6.0 0.00 0.20 0.11 95 1006.1
20260505161606 55 245 2.0 3.0 0.00 0.20 0.11 95 1006.2
20260505161104 55 270 0.0 3.0 0.00 0.20 0.11 95 1006.1
20260505160605 55 270 0.0 2.0 0.00 0.20 0.11 95 1006.1
20260505160105 55 247 1.0 2.0 0.00 0.20 0.11 95 1006.1
20260505153105 54 292 0.0 0.0 0.00 0.20 0.11 94 1005.9
20260505152605 54 305 1.0 2.0 0.00 0.20 0.11 94 1005.9
20260505151605 54 279 1.0 3.0 0.00 0.20 0.11 94 1005.8
20260505151104 54 280 2.0 6.0 0.00 0.20 0.11 95 1005.8
20260505150604 54 286 1.0 6.0 0.00 0.20 0.11 95 1005.6
20260505150105 54 293 1.0 7.0 0.00 0.20 0.11 95 1005.8
20260505140604 53 112 1.0 2.0 0.00 0.20 0.11 95 1005.3
20260505140104 53 123 0.0 2.0 0.00 0.20 0.11 95 1005.1
20260505124605 52 112 1.0 3.0 0.00 0.20 0.11 96 1005.1
20260505124105 52 135 2.0 3.0 0.00 0.20 0.11 96 1005.1
20260505122604 52 148 1.0 5.0 0.00 0.20 0.11 96 1004.7
20260505122105 52 135 1.0 3.0 0.00 0.20 0.11 96 1004.9
20260505121604 52 135 1.0 2.0 0.00 0.20 0.11 96 1004.9
20260505121104 52 135 0.0 2.0 0.00 0.20 0.11 96 1005.1
20260505120604 52 112 0.0 1.0 0.00 0.20 0.11 96 1005.1
20260505120104 52 112 0.0 3.0 0.00 0.20 0.11 96 1005.1
20260505115604 52 135 1.0 3.0 0.00 0.20 0.11 96 1005.1
20260505114605 52 135 0.0 3.0 0.00 0.20 0.11 96 1005.1
20260505114105 52 135 0.0 2.0 0.00 0.20 0.11 95 1005.1
20260505113603 52 93 1.0 3.0 0.00 0.20 0.11 95 1005.1
20260505113104 52 112 1.0 2.0 0.00 0.20 0.11 95 1004.9
20260505112604 52 112 0.0 2.0 0.00 0.20 0.11 95 1004.9
20260505112104 52 91 1.0 3.0 0.00 0.20 0.11 96 1005.1
20260505111604 52 135 1.0 3.0 0.00 0.20 0.11 96 1005.1
20260505111104 52 134 2.0 5.0 0.00 0.20 0.11 96 1004.7
20260505110604 52 143 2.0 3.0 0.00 0.20 0.11 95 1004.9
20260505110104 52 135 2.0 3.0 0.00 0.20 0.11 95 1005.1
20260505102105 52 155 1.0 3.0 0.01 0.20 0.11 95 1005.1
20260505101605 52 135 0.0 1.0 0.01 0.20 0.11 95 1005.4
20260505100604 52 130 0.0 1.0 0.01 0.20 0.11 95 1005.4
20260505100104 52 135 0.0 2.0 0.01 0.20 0.11 95 1005.4
20260505095604 52 135 0.0 2.0 0.01 0.20 0.11 95 1005.1
20260505095104 52 135 1.0 3.0 0.01 0.20 0.11 95 1005.1
20260505094604 52 123 1.0 2.0 0.01 0.20 0.11 95 1005.1
20260505093604 52 135 0.0 2.0 0.02 0.20 0.11 95 1005.4
20260505093104 52 123 0.0 2.0 0.03 0.20 0.11 95 1005.4
20260505092604 52 112 1.0 2.0 0.02 0.19 0.10 95 1005.4
20260505092104 52 112 1.0 3.0 0.02 0.19 0.10 95 1005.8
20260505091604 52 185 1.0 2.0 0.02 0.19 0.10 94 1005.8
20260505091104 52 135 0.0 3.0 0.02 0.19 0.10 94 1005.8
20260505090604 52 143 1.0 2.0 0.02 0.19 0.10 94 1005.8
20260505090104 52 106 1.0 2.0 0.02 0.19 0.10 94 1005.4
20260505085604 52 135 1.0 2.0 0.03 0.19 0.10 94 1005.4
20260505085104 52 135 0.0 5.0 0.04 0.19 0.10 94 1005.4
20260505084604 52 135 0.0 0.0 0.05 0.19 0.10 94 1005.8
20260505083604 52 135 0.0 0.0 0.05 0.18 0.09 94 1006.1
20260505083105 52 135 0.0 2.0 0.04 0.17 0.08 94 1006.1
20260505082105 52 135 0.0 1.0 0.05 0.17 0.08 94 1006.1
20260505081604 52 91 0.0 1.0 0.06 0.17 0.08 93 1006.1
20260505081103 52 112 0.0 2.0 0.07 0.17 0.08 93 1005.8
20260505080604 52 112 0.0 0.0 0.07 0.17 0.08 93 1005.8
20260505080104 52 112 0.0 1.0 0.07 0.17 0.08 93 1005.8
20260505075604 52 157 0.0 0.0 0.07 0.16 0.07 93 1005.8
20260505075104 52 157 0.0 0.0 0.06 0.15 0.06 93 1006.1
20260505074605 52 90 0.0 0.0 0.05 0.14 0.05 93 1006.1
20260505074104 52 157 0.0 1.0 0.05 0.14 0.05 93 1006.1
20260505073604 52 112 0.0 2.0 0.04 0.13 0.04 93 1006.1
20260505073104 52 243 0.0 1.0 0.05 0.13 0.04 93 1006.1
20260505072604 52 67 0.0 0.0 0.05 0.13 0.04 93 1006.1
20260505072104 52 67 0.0 0.0 0.04 0.12 0.03 93 1006.4
20260505071604 52 67 0.0 1.0 0.03 0.11 0.02 93 1006.1
20260505071105 52 112 0.0 1.0 0.02 0.10 0.01 93 1006.1
20260505070604 52 112 0.0 2.0 0.02 0.10 0.01 93 1006.1
20260505070103 52 225 0.0 0.0 0.02 0.10 0.10 93 1006.1
20260505065605 52 225 0.0 0.0 0.02 0.10 0.10 93 1006.1
20260505065104 52 259 0.0 3.0 0.02 0.09 0.09 93 1006.4